QPF
0.00 0.00 0.00 0.00 0.01 0.01 0.01 0.00 0.00 0.00 0.00 0.00 0.00 0.00 0.00 0.00 0.00 0.01 0.00 0.00 0.00 0.00 0.00 0.00 0.00 0.00 0.00 0.00 0.00 0.00 0.00 0.00 0.00 0.00 0.00 0.00 0.00 0.00 0.00 0.00 0.00 0.00 0.00 0.00 0.00 0.00 0.00 0.00 0.00
0.00 0.00 0.00 0.01 0.01 0.02 0.00 0.00 0.00 0.00 0.00 0.00 0.00 0.00 0.00 0.00 0.00 0.00 0.00 0.00 0.00 0.00 0.00 0.00 0.00 0.00 0.00 0.00 0.00 0.00 0.00 0.00 0.00 0.00 0.00 0.00 0.00 0.00 0.00 0.00 0.00 0.00 0.00 0.00 0.00 0.00 0.00 0.00 0.00
0.00 0.00 0.00 0.00 0.02 0.02 0.01 0.00 0.00 0.00 0.00 0.00 0.00 0.00 0.00 0.00 0.00 0.00 0.00 0.00 0.00 0.00 0.00 0.00 0.00 0.00 0.00 0.00 0.00 0.00 0.00 0.00 0.00 0.00 0.00 0.00 0.00 0.00 0.00 0.00 0.00 0.00 0.00 0.00 0.00 0.00 0.00 0.00 0.00
0.00 0.00 0.00 0.01 0.03 0.03 0.00 0.00 0.00 0.00 0.00 0.00 0.00 0.00 0.00 0.00 0.00 0.00 0.00 0.00 0.00 0.00 0.00 0.00 0.00 0.00 0.00 0.00 0.00 0.00 0.00 0.00 0.00 0.00 0.00 0.00 0.00 0.00 0.00 0.00 0.00 0.00 0.00 0.00 0.00 0.00 0.00 0.00 0.00
0.00 0.00 0.00 0.01 0.03 0.03 0.01 0.00 0.00 0.00 0.00 0.00 0.00 0.00 0.00 0.00 0.00 0.00 0.00 0.00 0.00 0.00 0.00 0.00 0.00 0.00 0.00 0.00 0.00 0.00 0.00 0.00 0.00 0.00 0.00 0.00 0.00 0.00 0.00 0.00 0.00 0.00 0.00 0.00 0.00 0.00 0.00 0.00 0.00
0.00 0.00 0.00 0.01 0.02 0.03 0.02 0.00 0.00 0.01 0.00 0.00 0.00 0.00 0.00 0.00 0.00 0.00 0.00 0.00 0.00 0.00 0.00 0.00 0.00 0.00 0.00 0.00 0.00 0.00 0.00 0.00 0.00 0.00 0.00 0.00 0.00 0.00 0.00 0.00 0.00 0.00 0.00 0.00 0.00 0.00 0.00 0.00 0.00
0.00 0.00 0.00 0.01 0.03 0.02 0.01 0.01 0.01 0.00 0.00 0.00 0.00 0.00 0.00 0.00 0.00 0.00 0.00 0.00 0.00 0.00 0.00 0.00 0.00 0.00 0.00 0.00 0.00 0.00 0.00 0.00 0.00 0.00 0.00 0.00 0.00 0.00 0.00 0.00 0.00 0.00 0.00 0.00 0.00 0.00 0.00 0.00 0.00
0.00 0.00 0.00 0.00 0.01 0.02 0.00 0.00 0.00 0.01 0.01 0.00 0.00 0.00 0.00 0.00 0.00 0.00 0.00 0.00 0.00 0.00 0.00 0.00 0.00 0.00 0.00 0.00 0.00 0.00 0.00 0.00 0.00 0.00 0.00 0.00 0.00 0.00 0.00 0.00 0.00 0.00 0.00 0.00 0.00 0.00 0.01 0.01 0.01
0.00 0.00 0.00 0.00 0.00 0.00 0.00 0.00 0.00 0.00 0.01 0.00 0.00 0.00 0.00 0.00 0.00 0.00 0.00 0.00 0.00 0.00 0.00 0.00 0.00 0.00 0.00 0.00 0.00 0.00 0.00 0.00 0.00 0.00 0.00 0.00 0.00 0.02 0.05 0.06 0.04 0.02 0.02 0.01 0.00 0.00 0.00 0.01 0.01
0.00 0.00 0.00 0.00 0.00 0.00 0.00 0.00 0.00 0.00 0.01 0.01 0.01 0.02 0.01 0.00 0.00 0.00 0.00 0.00 0.00 0.00 0.00 0.00 0.00 0.00 0.00 0.00 0.00 0.00 0.00 0.00 0.00 0.01 0.05 0.07 0.09 0.07 0.04 0.10 0.08 0.04 0.05 0.02 0.01 0.01 0.01 0.01 0.01
0.00 0.00 0.00 0.00 0.00 0.00 0.00 0.00 0.00 0.00 0.01 0.06 0.18 0.16 0.03 0.00 0.00 0.00 0.00 0.00 0.00 0.00 0.00 0.00 0.00 0.00 0.00 0.00 0.00 0.00 0.00 0.04 0.03 0.04 0.10 0.16 0.17 0.09 0.04 0.04 0.09 0.12 0.09 0.04 0.03 0.03 0.02 0.02 0.05
0.00 0.00 0.00 0.00 0.00 0.00 0.00 0.00 0.00 0.00 0.01 0.10 0.33 0.29 0.06 0.01 0.00 0.00 0.00 0.00 0.00 0.00 0.00 0.00 0.00 0.00 0.00 0.00 0.00 0.00 0.00 0.02 0.02 0.03 0.06 0.12 0.13 0.10 0.08 0.07 0.06 0.11 0.11 0.12 0.08 0.06 0.04 0.04 0.04
0.00 0.00 0.00 0.00 0.00 0.00 0.00 0.00 0.00 0.00 0.00 0.01 0.10 0.17 0.07 0.02 0.00 0.00 0.00 0.00 0.00 0.00 0.00 0.00 0.00 0.00 0.00 0.00 0.00 0.01 0.01 0.01 0.01 0.03 0.04 0.08 0.14 0.13 0.14 0.15 0.12 0.06 0.07 0.09 0.10 0.07 0.06 0.06 0.04
0.00 0.00 0.00 0.00 0.00 0.00 0.00 0.00 0.00 0.00 0.00 0.00 0.02 0.08 0.07 0.03 0.02 0.00 0.00 0.00 0.00 0.00 0.00 0.00 0.00 0.00 0.00 0.01 0.02 0.04 0.04 0.04 0.05 0.06 0.06 0.10 0.16 0.17 0.16 0.16 0.14 0.11 0.12 0.12 0.14 0.11 0.12 0.09 0.10
0.00 0.00 0.00 0.00 0.00 0.00 0.00 0.00 0.00 0.00 0.00 0.00 0.00 0.01 0.03 0.04 0.02 0.00 0.00 0.00 0.00 0.00 0.00 0.00 0.00 0.00 0.02 0.04 0.06 0.08 0.06 0.06 0.07 0.08 0.05 0.07 0.13 0.17 0.15 0.13 0.12 0.15 0.19 0.19 0.14 0.13 0.19 0.14 0.13
0.00 0.00 0.00 0.00 0.00 0.00 0.00 0.00 0.00 0.00 0.00 0.00 0.00 0.00 0.00 0.00 0.00 0.00 0.00 0.00 0.00 0.00 0.00 0.00 0.00 0.01 0.07 0.09 0.06 0.06 0.03 0.05 0.05 0.04 0.02 0.03 0.05 0.06 0.08 0.07 0.08 0.12 0.11 0.11 0.09 0.12 0.13 0.16 0.19
0.00 0.00 0.00 0.00 0.00 0.00 0.00 0.00 0.00 0.00 0.00 0.00 0.00 0.00 0.00 0.00 0.00 0.00 0.01 0.01 0.01 0.01 0.01 0.02 0.03 0.06 0.12 0.09 0.04 0.03 0.02 0.02 0.01 0.01 0.01 0.01 0.01 0.01 0.02 0.02 0.02 0.02 0.02 0.03 0.03 0.09 0.08 0.08 0.12
0.00 0.00 0.00 0.00 0.00 0.00 0.00 0.00 0.00 0.00 0.00 0.00 0.00 0.00 0.00 0.01 0.02 0.04 0.07 0.09 0.06 0.06 0.06 0.06 0.08 0.11 0.08 0.05 0.03 0.02 0.01 0.00 0.00 0.00 0.00 0.00 0.00 0.00 0.00 0.00 0.00 0.00 0.00 0.00 0.00 0.01 0.02 0.03 0.04
0.00 0.00 0.00 0.00 0.00 0.00 0.00 0.00 0.00 0.00 0.00 0.00 0.00 0.00 0.01 0.05 0.09 0.15 0.26 0.23 0.16 0.16 0.16 0.15 0.16 0.14 0.10 0.07 0.03 0.01 0.00 0.00 0.00 0.00 0.00 0.00 0.00 0.00 0.00 0.00 0.00 0.00 0.00 0.00 0.00 0.00 0.00 0.01 0.02
0.00 0.00 0.00 0.00 0.00 0.00 0.00 0.00 0.00 0.00 0.00 0.00 0.00 0.01 0.06 0.17 0.33 0.51 0.70 0.52 0.35 0.38 0.41 0.32 0.26 0.22 0.13 0.07 0.03 0.01 0.00 0.00 0.00 0.00 0.00 0.00 0.00 0.00 0.00 0.00 0.00 0.00 0.00 0.00 0.00 0.01 0.01 0.00 0.01
0.00 0.00 0.00 0.00 0.00 0.00 0.00 0.00 0.00 0.00 0.00 0.01 0.01 0.03 0.12 0.29 0.55 0.80 0.97 0.87 0.75 0.85 0.77 0.55 0.36 0.27 0.13 0.07 0.03 0.02 0.01 0.00 0.00 0.00 0.00 0.00 0.00 0.00 0.00 0.00 0.00 0.00 0.00 0.00 0.00 0.01 0.01 0.01 0.01
0.00 0.00 0.00 0.00 0.00 0.00 0.00 0.00 0.00 0.00 0.00 0.01 0.02 0.08 0.15 0.20 0.36 0.56 0.72 0.78 0.85 0.89 0.74 0.53 0.33 0.22 0.14 0.09 0.07 0.06 0.03 0.01 0.00 0.00 0.00 0.00 0.00 0.00 0.00 0.00 0.00 0.00 0.00 0.00 0.00 0.01 0.02 0.02 0.02
0.00 0.00 0.00 0.00 0.00 0.00 0.00 0.00 0.00 0.00 0.00 0.01 0.03 0.09 0.14 0.13 0.20 0.29 0.34 0.41 0.49 0.51 0.45 0.32 0.30 0.27 0.20 0.15 0.13 0.10 0.04 0.01 0.00 0.00 0.00 0.00 0.00 0.00 0.00 0.00 0.00 0.00 0.00 0.00 0.01 0.02 0.03 0.03 0.04
0.00 0.00 0.00 0.00 0.01 0.02 0.02 0.01 0.01 0.01 0.00 0.01 0.02 0.03 0.06 0.08 0.13 0.17 0.18 0.17 0.18 0.18 0.17 0.15 0.19 0.21 0.17 0.16 0.15 0.12 0.09 0.06 0.03 0.02 0.02 0.01 0.00 0.00 0.00 0.00 0.00 0.00 0.00 0.01 0.01 0.02 0.02 0.04 0.06
0.00 0.00 0.00 0.01 0.05 0.09 0.10 0.04 0.03 0.01 0.00 0.00 0.01 0.01 0.02 0.03 0.04 0.07 0.10 0.10 0.09 0.08 0.06 0.05 0.06 0.11 0.12 0.12 0.13 0.13 0.11 0.08 0.06 0.05 0.03 0.02 0.00 0.00 0.00 0.00 0.00 0.00 0.00 0.01 0.01 0.02 0.02 0.04 0.06
0.00 0.00 0.00 0.00 0.01 0.01 0.02 0.02 0.03 0.02 0.00 0.00 0.00 0.00 0.01 0.01 0.01 0.02 0.03 0.04 0.04 0.03 0.03 0.02 0.02 0.03 0.05 0.07 0.09 0.09 0.10 0.08 0.07 0.10 0.05 0.03 0.02 0.01 0.00 0.01 0.00 0.00 0.00 0.00 0.01 0.01 0.02 0.04 0.05
0.00 0.00 0.00 0.00 0.00 0.00 0.00 0.03 0.04 0.05 0.05 0.02 0.00 0.00 0.00 0.00 0.01 0.01 0.01 0.01 0.01 0.02 0.02 0.02 0.02 0.02 0.03 0.04 0.05 0.06 0.08 0.07 0.08 0.09 0.08 0.06 0.06 0.03 0.02 0.02 0.02 0.01 0.01 0.01 0.01 0.02 0.02 0.03 0.05
0.00 0.00 0.00 0.00 0.00 0.00 0.00 0.06 0.14 0.16 0.16 0.06 0.01 0.00 0.00 0.00 0.00 0.00 0.01 0.01 0.01 0.01 0.01 0.01 0.02 0.02 0.02 0.02 0.03 0.03 0.04 0.05 0.07 0.07 0.08 0.09 0.09 0.07 0.06 0.05 0.04 0.03 0.02 0.01 0.02 0.02 0.02 0.03 0.06
0.00 0.00 0.00 0.00 0.00 0.00 0.01 0.07 0.09 0.12 0.08 0.03 0.01 0.00 0.00 0.00 0.00 0.00 0.00 0.00 0.00 0.00 0.01 0.01 0.01 0.01 0.01 0.02 0.02 0.01 0.01 0.02 0.04 0.05 0.06 0.08 0.08 0.08 0.08 0.07 0.07 0.05 0.03 0.02 0.02 0.02 0.03 0.04 0.06
0.00 0.00 0.00 0.00 0.00 0.00 0.02 0.08 0.05 0.06 0.04 0.02 0.01 0.00 0.00 0.00 0.00 0.00 0.00 0.00 0.00 0.00 0.00 0.00 0.01 0.01 0.01 0.01 0.01 0.01 0.00 0.00 0.01 0.02 0.04 0.05 0.07 0.08 0.08 0.09 0.08 0.06 0.04 0.04 0.02 0.02 0.02 0.03 0.05
MSLP
1005.82 1006.46 1007.15 1007.71 1008.00 1007.94 1007.52 1006.84 1006.04 1005.30 1004.77 1004.53 1004.62 1004.96 1005.45 1005.96 1006.39 1006.68 1006.85 1006.97 1007.12 1007.39 1007.83 1008.45 1009.19 1009.96 1010.65 1011.19 1011.54 1011.71 1011.77 1011.79 1011.85 1012.02 1012.29 1012.67 1013.08 1013.48 1013.80 1014.03 1014.17 1014.24 1014.29 1014.35 1014.45 1014.60 1014.76 1014.91 1015.03
1006.07 1006.81 1007.53 1008.06 1008.25 1008.06 1007.49 1006.67 1005.75 1004.91 1004.30 1004.02 1004.06 1004.36 1004.81 1005.29 1005.71 1006.03 1006.26 1006.48 1006.78 1007.21 1007.83 1008.60 1009.45 1010.29 1011.01 1011.54 1011.86 1011.99 1012.01 1012.00 1012.06 1012.22 1012.50 1012.87 1013.27 1013.63 1013.91 1014.08 1014.17 1014.21 1014.24 1014.31 1014.44 1014.62 1014.82 1015.00 1015.12
1006.41 1007.23 1007.96 1008.42 1008.51 1008.18 1007.48 1006.53 1005.51 1004.60 1003.95 1003.64 1003.64 1003.91 1004.32 1004.77 1005.16 1005.48 1005.76 1006.06 1006.46 1007.02 1007.77 1008.66 1009.61 1010.51 1011.26 1011.79 1012.10 1012.22 1012.24 1012.24 1012.31 1012.49 1012.77 1013.13 1013.48 1013.79 1013.99 1014.09 1014.11 1014.11 1014.13 1014.21 1014.38 1014.61 1014.86 1015.07 1015.22
1006.73 1007.59 1008.29 1008.68 1008.66 1008.22 1007.41 1006.39 1005.33 1004.40 1003.76 1003.45 1003.45 1003.70 1004.07 1004.46 1004.81 1005.10 1005.37 1005.70 1006.15 1006.79 1007.62 1008.59 1009.60 1010.54 1011.32 1011.87 1012.19 1012.34 1012.38 1012.42 1012.53 1012.74 1013.03 1013.37 1013.68 1013.92 1014.05 1014.06 1014.02 1013.97 1013.99 1014.09 1014.30 1014.58 1014.89 1015.15 1015.31
1006.97 1007.80 1008.43 1008.72 1008.59 1008.06 1007.20 1006.17 1005.14 1004.29 1003.72 1003.47 1003.51 1003.75 1004.08 1004.42 1004.69 1004.91 1005.13 1005.43 1005.88 1006.54 1007.39 1008.38 1009.42 1010.38 1011.17 1011.74 1012.09 1012.27 1012.37 1012.47 1012.64 1012.89 1013.20 1013.54 1013.81 1013.99 1014.05 1014.00 1013.90 1013.82 1013.83 1013.96 1014.21 1014.54 1014.89 1015.18 1015.37
1007.04 1007.77 1008.28 1008.45 1008.23 1007.64 1006.79 1005.83 1004.92 1004.21 1003.79 1003.66 1003.77 1004.04 1004.35 1004.62 1004.80 1004.92 1005.05 1005.27 1005.66 1006.28 1007.10 1008.08 1009.10 1010.04 1010.83 1011.41 1011.79 1012.02 1012.17 1012.34 1012.57 1012.87 1013.22 1013.55 1013.82 1013.96 1013.97 1013.87 1013.74 1013.64 1013.65 1013.79 1014.07 1014.43 1014.82 1015.13 1015.33
1006.95 1007.51 1007.85 1007.87 1007.56 1006.96 1006.18 1005.35 1004.63 1004.13 1003.91 1003.95 1004.18 1004.50 1004.80 1005.01 1005.10 1005.10 1005.11 1005.23 1005.53 1006.06 1006.82 1007.73 1008.70 1009.61 1010.37 1010.94 1011.33 1011.59 1011.80 1012.02 1012.30 1012.65 1013.03 1013.38 1013.64 1013.77 1013.76 1013.65 1013.50 1013.40 1013.41 1013.56 1013.85 1014.23 1014.62 1014.94 1015.13
1006.74 1007.08 1007.22 1007.09 1006.70 1006.11 1005.42 1004.77 1004.28 1004.03 1004.05 1004.28 1004.65 1005.04 1005.34 1005.50 1005.50 1005.40 1005.29 1005.29 1005.48 1005.91 1006.58 1007.41 1008.30 1009.15 1009.86 1010.41 1010.80 1011.07 1011.29 1011.54 1011.86 1012.24 1012.64 1013.01 1013.28 1013.42 1013.43 1013.32 1013.18 1013.08 1013.10 1013.25 1013.53 1013.90 1014.27 1014.57 1014.74
1006.48 1006.59 1006.52 1006.24 1005.78 1005.21 1004.64 1004.17 1003.91 1003.91 1004.15 1004.57 1005.07 1005.52 1005.84 1005.96 1005.89 1005.70 1005.49 1005.39 1005.48 1005.82 1006.39 1007.13 1007.94 1008.72 1009.38 1009.89 1010.24 1010.50 1010.73 1010.98 1011.30 1011.69 1012.10 1012.49 1012.78 1012.94 1012.97 1012.89 1012.78 1012.69 1012.70 1012.84 1013.10 1013.43 1013.77 1014.04 1014.18
1006.27 1006.17 1005.90 1005.49 1004.97 1004.43 1003.95 1003.65 1003.57 1003.77 1004.19 1004.75 1005.34 1005.84 1006.16 1006.25 1006.14 1005.89 1005.62 1005.44 1005.46 1005.72 1006.21 1006.87 1007.62 1008.33 1008.94 1009.40 1009.73 1009.96 1010.16 1010.40 1010.70 1011.07 1011.48 1011.87 1012.18 1012.37 1012.44 1012.40 1012.32 1012.26 1012.26 1012.38 1012.59 1012.87 1013.16 1013.38 1013.50
1006.16 1005.89 1005.48 1004.96 1004.40 1003.87 1003.46 1003.26 1003.31 1003.62 1004.13 1004.76 1005.39 1005.90 1006.20 1006.27 1006.13 1005.85 1005.55 1005.34 1005.32 1005.54 1005.98 1006.59 1007.28 1007.95 1008.52 1008.95 1009.25 1009.46 1009.64 1009.85 1010.12 1010.47 1010.86 1011.24 1011.57 1011.79 1011.90 1011.91 1011.86 1011.81 1011.82 1011.90 1012.06 1012.28 1012.51 1012.68 1012.76
1006.19 1005.81 1005.30 1004.72 1004.12 1003.59 1003.21 1003.05 1003.13 1003.45 1003.97 1004.57 1005.16 1005.63 1005.90 1005.95 1005.79 1005.51 1005.22 1005.02 1004.99 1005.19 1005.61 1006.20 1006.86 1007.52 1008.08 1008.51 1008.81 1009.02 1009.19 1009.37 1009.62 1009.93 1010.29 1010.67 1011.00 1011.25 1011.40 1011.46 1011.45 1011.42 1011.42 1011.47 1011.58 1011.73 1011.89 1012.01 1012.07
1006.34 1005.91 1005.35 1004.74 1004.12 1003.58 1003.18 1002.99 1003.01 1003.26 1003.68 1004.18 1004.66 1005.05 1005.26 1005.29 1005.14 1004.88 1004.62 1004.45 1004.45 1004.66 1005.08 1005.67 1006.33 1006.99 1007.58 1008.04 1008.37 1008.61 1008.78 1008.97 1009.19 1009.48 1009.82 1010.18 1010.52 1010.80 1010.99 1011.10 1011.13 1011.12 1011.11 1011.13 1011.18 1011.27 1011.37 1011.44 1011.48
1006.55 1006.12 1005.56 1004.95 1004.33 1003.76 1003.32 1003.04 1002.94 1003.04 1003.29 1003.63 1003.97 1004.24 1004.39 1004.40 1004.26 1004.05 1003.85 1003.73 1003.76 1004.00 1004.43 1005.02 1005.70 1006.38 1007.01 1007.52 1007.92 1008.20 1008.42 1008.62 1008.85 1009.13 1009.45 1009.81 1010.15 1010.46 1010.69 1010.83 1010.90 1010.92 1010.91 1010.91 1010.91 1010.94 1010.98 1011.02 1011.02
1006.77 1006.36 1005.83 1005.24 1004.63 1004.04 1003.54 1003.15 1002.91 1002.83 1002.88 1003.03 1003.22 1003.39 1003.49 1003.49 1003.39 1003.25 1003.10 1003.04 1003.11 1003.35 1003.78 1004.36 1005.04 1005.75 1006.42 1006.99 1007.46 1007.81 1008.09 1008.33 1008.57 1008.85 1009.17 1009.51 1009.86 1010.19 1010.46 1010.65 1010.76 1010.81 1010.81 1010.79 1010.76 1010.74 1010.73 1010.72 1010.70
1006.93 1006.56 1006.08 1005.53 1004.95 1004.36 1003.80 1003.32 1002.93 1002.68 1002.55 1002.54 1002.60 1002.69 1002.77 1002.80 1002.77 1002.70 1002.62 1002.60 1002.69 1002.92 1003.32 1003.86 1004.51 1005.21 1005.89 1006.51 1007.04 1007.46 1007.80 1008.08 1008.34 1008.62 1008.93 1009.27 1009.63 1009.97 1010.28 1010.52 1010.68 1010.76 1010.78 1010.75 1010.70 1010.65 1010.59 1010.54 1010.49
1007.03 1006.70 1006.28 1005.79 1005.26 1004.69 1004.11 1003.56 1003.08 1002.69 1002.43 1002.30 1002.29 1002.35 1002.45 1002.54 1002.60 1002.62 1002.62 1002.64 1002.72 1002.90 1003.22 1003.67 1004.24 1004.89 1005.55 1006.17 1006.73 1007.19 1007.56 1007.87 1008.14 1008.42 1008.72 1009.05 1009.40 1009.77 1010.11 1010.39 1010.60 1010.73 1010.77 1010.76 1010.70 1010.62 1010.53 1010.45 1010.36
1007.08 1006.78 1006.43 1006.04 1005.59 1005.08 1004.52 1003.95 1003.41 1002.96 1002.62 1002.44 1002.41 1002.50 1002.67 1002.86 1003.03 1003.15 1003.22 1003.25 1003.30 1003.40 1003.60 1003.92 1004.36 1004.89 1005.47 1006.05 1006.59 1007.05 1007.42 1007.73 1007.99 1008.25 1008.52 1008.83 1009.18 1009.55 1009.91 1010.24 1010.50 1010.68 1010.77 1010.77 1010.72 1010.62 1010.51 1010.40 1010.28
1007.11 1006.86 1006.61 1006.33 1005.99 1005.57 1005.09 1004.55 1004.01 1003.54 1003.20 1003.02 1003.01 1003.17 1003.43 1003.75 1004.04 1004.26 1004.39 1004.43 1004.43 1004.42 1004.47 1004.62 1004.88 1005.26 1005.71 1006.19 1006.66 1007.07 1007.41 1007.68 1007.90 1008.11 1008.34 1008.62 1008.94 1009.31 1009.70 1010.06 1010.37 1010.60 1010.73 1010.77 1010.73 1010.63 1010.51 1010.38 1010.25
1007.16 1007.00 1006.86 1006.72 1006.53 1006.25 1005.86 1005.40 1004.91 1004.46 1004.14 1003.99 1004.03 1004.27 1004.64 1005.07 1005.48 1005.79 1005.97 1006.01 1005.94 1005.82 1005.72 1005.68 1005.75 1005.94 1006.23 1006.57 1006.93 1007.26 1007.53 1007.73 1007.89 1008.04 1008.20 1008.42 1008.71 1009.06 1009.45 1009.85 1010.20 1010.47 1010.65 1010.72 1010.71 1010.63 1010.51 1010.38 1010.24
1007.27 1007.22 1007.24 1007.27 1007.25 1007.12 1006.86 1006.49 1006.06 1005.65 1005.36 1005.23 1005.32 1005.62 1006.06 1006.58 1007.07 1007.46 1007.67 1007.71 1007.59 1007.36 1007.11 1006.90 1006.80 1006.81 1006.93 1007.13 1007.37 1007.59 1007.77 1007.89 1007.97 1008.03 1008.12 1008.28 1008.51 1008.83 1009.21 1009.61 1009.99 1010.30 1010.52 1010.64 1010.65 1010.60 1010.49 1010.36 1010.23
1007.44 1007.54 1007.73 1007.95 1008.11 1008.15 1008.03 1007.75 1007.38 1007.00 1006.70 1006.58 1006.67 1006.97 1007.44 1008.00 1008.53 1008.95 1009.19 1009.22 1009.06 1008.76 1008.41 1008.07 1007.82 1007.69 1007.68 1007.76 1007.89 1008.02 1008.10 1008.14 1008.13 1008.12 1008.12 1008.20 1008.37 1008.63 1008.98 1009.37 1009.75 1010.09 1010.34 1010.49 1010.54 1010.51 1010.42 1010.31 1010.19
1007.64 1007.90 1008.29 1008.70 1009.05 1009.24 1009.24 1009.05 1008.72 1008.34 1008.01 1007.84 1007.88 1008.13 1008.56 1009.09 1009.61 1010.03 1010.26 1010.29 1010.11 1009.79 1009.39 1008.99 1008.66 1008.45 1008.36 1008.36 1008.41 1008.47 1008.49 1008.46 1008.38 1008.28 1008.21 1008.20 1008.29 1008.49 1008.78 1009.13 1009.50 1009.83 1010.09 1010.26 1010.33 1010.32 1010.26 1010.17 1010.07
1007.83 1008.26 1008.83 1009.43 1009.94 1010.27 1010.38 1010.25 1009.94 1009.54 1009.15 1008.89 1008.82 1008.97 1009.29 1009.74 1010.20 1010.57 1010.79 1010.82 1010.65 1010.34 1009.94 1009.55 1009.22 1009.00 1008.88 1008.86 1008.88 1008.91 1008.89 1008.81 1008.68 1008.52 1008.37 1008.28 1008.29 1008.40 1008.61 1008.90 1009.22 1009.53 1009.77 1009.94 1010.02 1010.02 1009.97 1009.90 1009.82
1007.96 1008.54 1009.27 1010.01 1010.66 1011.12 1011.31 1011.24 1010.94 1010.50 1010.05 1009.68 1009.48 1009.48 1009.66 1009.97 1010.33 1010.63 1010.82 1010.85 1010.71 1010.44 1010.10 1009.77 1009.49 1009.31 1009.23 1009.23 1009.27 1009.30 1009.28 1009.18 1009.02 1008.81 1008.60 1008.43 1008.34 1008.36 1008.48 1008.69 1008.93 1009.18 1009.38 1009.52 1009.59 1009.59 1009.54 1009.47 1009.39
1008.04 1008.71 1009.54 1010.39 1011.14 1011.69 1011.96 1011.94 1011.66 1011.21 1010.69 1010.23 1009.90 1009.74 1009.77 1009.93 1010.16 1010.38 1010.52 1010.54 1010.44 1010.24 1009.99 1009.74 1009.56 1009.46 1009.45 1009.50 1009.58 1009.64 1009.63 1009.53 1009.35 1009.11 1008.85 1008.61 1008.44 1008.36 1008.38 1008.48 1008.63 1008.79 1008.93 1009.02 1009.05 1009.03 1008.97 1008.89 1008.81
1008.05 1008.76 1009.63 1010.52 1011.34 1011.95 1012.29 1012.33 1012.11 1011.67 1011.14 1010.62 1010.19 1009.91 1009.80 1009.81 1009.92 1010.04 1010.13 1010.14 1010.07 1009.93 1009.76 1009.62 1009.53 1009.52 1009.59 1009.70 1009.82 1009.91 1009.92 1009.84 1009.65 1009.39 1009.10 1008.80 1008.56 1008.39 1008.30 1008.29 1008.33 1008.40 1008.46 1008.48 1008.46 1008.40 1008.31 1008.21 1008.11
1008.05 1008.73 1009.56 1010.45 1011.28 1011.94 1012.34 1012.47 1012.32 1011.96 1011.47 1010.95 1010.49 1010.13 1009.90 1009.80 1009.79 1009.82 1009.85 1009.83 1009.78 1009.69 1009.59 1009.52 1009.51 1009.57 1009.69 1009.85 1010.00 1010.10 1010.13 1010.05 1009.87 1009.60 1009.29 1008.96 1008.65 1008.40 1008.23 1008.12 1008.06 1008.03 1008.00 1007.95 1007.87 1007.77 1007.64 1007.51 1007.39
1008.09 1008.67 1009.43 1010.26 1011.06 1011.73 1012.20 1012.42 1012.38 1012.13 1011.74 1011.29 1010.84 1010.46 1010.18 1009.99 1009.89 1009.84 1009.79 1009.75 1009.69 1009.61 1009.55 1009.53 1009.55 1009.64 1009.77 1009.93 1010.07 1010.17 1010.20 1010.12 1009.94 1009.68 1009.36 1009.02 1008.68 1008.39 1008.15 1007.96 1007.82 1007.70 1007.59 1007.48 1007.35 1007.20 1007.05 1006.89 1006.74
1008.24 1008.68 1009.31 1010.04 1010.78 1011.45 1011.96 1012.27 1012.36 1012.25 1011.99 1011.64 1011.26 1010.90 1010.60 1010.36 1010.19 1010.06 1009.95 1009.85 1009.76 1009.68 1009.61 1009.59 1009.61 1009.67 1009.78 1009.90 1010.01 1010.08 1010.08 1009.99 1009.81 1009.57 1009.27 1008.94 1008.61 1008.30 1008.03 1007.80 1007.60 1007.43 1007.26 1007.10 1006.93 1006.75 1006.58 1006.41 1006.25
Thickness
5864 5867 5868 5862 5844 5838 5848 5865 5872 5870 5872 5882 5886 5882 5864 5854 5844 5832 5867 5875 5864 5851 5841 5834 5829 5825 5822 5818 5815 5812 5808 5804 5801 5797 5794 5792 5790 5787 5785 5782 5779 5777 5775 5773 5771 5769 5767 5765 5763
5869 5875 5869 5853 5830 5818 5842 5867 5866 5870 5881 5890 5888 5882 5867 5857 5865 5864 5868 5868 5860 5850 5841 5835 5828 5824 5820 5817 5813 5809 5806 5803 5799 5796 5793 5790 5788 5786 5784 5781 5779 5776 5774 5772 5770 5768 5766 5764 5762
5870 5875 5860 5850 5829 5823 5844 5869 5873 5882 5890 5887 5878 5876 5865 5856 5865 5866 5869 5869 5859 5849 5841 5833 5827 5823 5819 5815 5811 5808 5804 5801 5798 5795 5792 5789 5787 5785 5783 5781 5778 5776 5774 5771 5769 5767 5765 5764 5762
5872 5871 5862 5848 5834 5845 5864 5877 5884 5881 5886 5889 5880 5863 5862 5871 5874 5872 5873 5868 5856 5847 5840 5831 5826 5821 5817 5813 5809 5806 5803 5799 5796 5793 5791 5788 5786 5784 5782 5780 5778 5776 5773 5771 5769 5767 5766 5764 5762
5875 5861 5851 5845 5846 5863 5879 5889 5888 5876 5878 5883 5875 5854 5851 5871 5879 5876 5872 5865 5854 5847 5839 5829 5824 5819 5815 5811 5807 5804 5801 5798 5795 5792 5789 5787 5785 5783 5781 5779 5777 5775 5773 5771 5769 5768 5766 5764 5763
5861 5863 5845 5839 5837 5857 5877 5890 5886 5874 5876 5880 5872 5854 5849 5869 5871 5870 5870 5864 5859 5850 5839 5828 5822 5818 5814 5810 5806 5802 5799 5796 5793 5790 5788 5785 5783 5782 5780 5778 5776 5774 5773 5771 5769 5767 5766 5764 5763
5851 5848 5843 5850 5841 5837 5864 5890 5880 5870 5872 5880 5881 5855 5851 5863 5869 5871 5869 5866 5862 5853 5839 5829 5822 5817 5812 5809 5805 5801 5798 5795 5792 5789 5786 5784 5782 5780 5778 5776 5774 5773 5771 5769 5768 5766 5765 5764 5762
5865 5849 5846 5858 5848 5839 5868 5890 5891 5880 5871 5889 5889 5859 5849 5862 5870 5870 5866 5864 5861 5852 5840 5832 5826 5819 5813 5808 5804 5800 5797 5793 5790 5787 5785 5782 5780 5778 5777 5775 5773 5771 5770 5768 5766 5765 5764 5763 5762
5865 5838 5838 5860 5858 5858 5879 5882 5890 5896 5880 5880 5886 5880 5873 5871 5870 5863 5858 5857 5855 5850 5842 5836 5829 5821 5816 5810 5805 5799 5795 5792 5788 5786 5783 5780 5779 5779 5778 5776 5774 5771 5769 5767 5766 5764 5763 5762 5761
5854 5832 5849 5875 5876 5871 5875 5879 5886 5882 5869 5862 5856 5857 5865 5866 5862 5855 5851 5849 5846 5844 5842 5840 5834 5824 5819 5816 5808 5801 5796 5792 5788 5787 5784 5779 5778 5778 5780 5779 5775 5772 5769 5767 5765 5763 5761 5760 5760
5850 5842 5859 5873 5882 5880 5875 5882 5893 5880 5859 5845 5828 5817 5833 5850 5853 5851 5850 5849 5845 5843 5842 5840 5835 5826 5821 5817 5809 5805 5801 5797 5789 5786 5784 5780 5777 5775 5777 5778 5775 5770 5767 5764 5764 5761 5759 5760 5761
5847 5851 5860 5865 5875 5872 5871 5878 5882 5882 5870 5861 5846 5828 5827 5838 5846 5849 5848 5847 5844 5839 5837 5839 5833 5824 5819 5816 5811 5806 5801 5797 5793 5788 5784 5780 5775 5772 5772 5772 5772 5768 5766 5764 5763 5762 5761 5761 5762
5840 5845 5857 5866 5868 5868 5869 5868 5872 5876 5878 5866 5850 5837 5834 5838 5845 5851 5852 5848 5842 5836 5834 5834 5830 5822 5815 5809 5805 5802 5798 5794 5791 5786 5781 5777 5772 5767 5766 5764 5764 5763 5762 5762 5761 5760 5759 5759 5758
5836 5843 5850 5858 5861 5864 5860 5862 5865 5874 5881 5863 5845 5837 5834 5838 5844 5848 5848 5844 5839 5834 5831 5830 5824 5817 5810 5802 5797 5794 5792 5788 5785 5780 5776 5772 5768 5763 5760 5758 5758 5758 5757 5757 5755 5754 5754 5753 5753
5838 5827 5831 5843 5853 5861 5859 5846 5857 5877 5884 5866 5851 5844 5844 5845 5847 5848 5846 5842 5838 5832 5830 5825 5818 5812 5803 5797 5791 5788 5786 5783 5779 5775 5771 5768 5764 5760 5756 5754 5754 5754 5754 5752 5751 5750 5749 5748 5749
5825 5814 5809 5836 5854 5862 5846 5824 5857 5880 5877 5864 5857 5854 5850 5849 5851 5849 5846 5840 5836 5830 5824 5819 5814 5806 5797 5790 5786 5784 5782 5779 5775 5771 5768 5765 5760 5756 5753 5750 5750 5750 5749 5748 5747 5746 5745 5744 5743
5809 5802 5810 5834 5860 5860 5842 5828 5855 5872 5862 5853 5852 5852 5849 5847 5846 5843 5840 5834 5829 5824 5817 5810 5805 5799 5791 5785 5781 5778 5777 5774 5770 5768 5764 5760 5756 5753 5750 5747 5747 5746 5745 5744 5744 5743 5740 5737 5736
5805 5818 5825 5833 5851 5843 5828 5829 5848 5858 5850 5844 5847 5846 5843 5837 5835 5832 5827 5824 5819 5814 5807 5801 5795 5790 5785 5780 5776 5773 5771 5769 5767 5764 5759 5755 5751 5749 5746 5743 5742 5742 5740 5738 5738 5736 5735 5733 5732
5810 5810 5814 5830 5844 5827 5816 5818 5832 5844 5839 5834 5835 5834 5829 5823 5823 5818 5809 5802 5798 5797 5791 5788 5782 5777 5774 5770 5766 5762 5760 5761 5760 5759 5756 5751 5747 5744 5741 5738 5737 5736 5735 5734 5733 5730 5728 5727 5728
5806 5803 5807 5820 5832 5821 5810 5810 5824 5832 5831 5829 5823 5816 5809 5801 5789 5777 5768 5767 5768 5767 5770 5765 5766 5763 5761 5760 5759 5758 5755 5755 5755 5753 5749 5746 5743 5740 5738 5735 5732 5732 5730 5729 5728 5727 5724 5723 5723
5797 5794 5794 5794 5805 5811 5802 5798 5810 5822 5824 5814 5801 5791 5779 5769 5762 5751 5747 5743 5746 5745 5741 5745 5750 5750 5750 5752 5752 5751 5748 5745 5744 5743 5743 5742 5739 5736 5733 5730 5728 5727 5726 5724 5724 5723 5720 5716 5717
5783 5796 5795 5791 5784 5782 5795 5775 5796 5805 5797 5789 5782 5776 5766 5755 5749 5744 5739 5736 5732 5737 5739 5739 5739 5740 5741 5742 5740 5737 5734 5732 5734 5736 5737 5736 5735 5732 5730 5727 5725 5723 5722 5721 5720 5721 5717 5713 5710
5790 5801 5794 5789 5781 5775 5784 5774 5781 5794 5777 5770 5769 5765 5757 5748 5742 5737 5732 5728 5726 5727 5728 5728 5728 5727 5728 5729 5730 5727 5725 5727 5730 5731 5731 5729 5730 5729 5727 5725 5722 5720 5718 5717 5716 5714 5712 5710 5708
5802 5795 5791 5789 5772 5741 5740 5734 5756 5776 5770 5763 5760 5757 5751 5745 5738 5732 5728 5724 5720 5718 5717 5716 5715 5715 5716 5717 5718 5716 5715 5716 5718 5719 5719 5721 5723 5724 5725 5723 5720 5717 5715 5714 5713 5711 5709 5708 5706
5792 5772 5755 5749 5731 5719 5725 5723 5743 5763 5768 5760 5751 5747 5745 5740 5733 5726 5721 5717 5714 5711 5708 5705 5703 5702 5704 5704 5704 5704 5705 5707 5707 5708 5710 5713 5714 5716 5718 5718 5715 5712 5710 5709 5709 5707 5706 5706 5704
5782 5775 5750 5736 5741 5750 5744 5739 5738 5752 5753 5750 5746 5742 5739 5734 5729 5722 5716 5711 5707 5704 5701 5698 5695 5693 5693 5692 5691 5691 5692 5694 5696 5697 5700 5703 5705 5708 5711 5710 5709 5707 5705 5705 5704 5704 5703 5704 5703
5778 5775 5781 5763 5760 5755 5761 5740 5731 5737 5730 5731 5732 5730 5726 5723 5720 5716 5711 5705 5700 5695 5691 5687 5684 5681 5681 5681 5680 5680 5680 5681 5683 5685 5689 5692 5694 5697 5700 5701 5701 5700 5700 5699 5699 5698 5699 5699 5699
5794 5784 5770 5752 5733 5729 5748 5732 5716 5716 5713 5715 5716 5715 5712 5711 5708 5705 5701 5697 5692 5687 5682 5679 5675 5670 5668 5667 5666 5667 5667 5667 5669 5672 5674 5676 5680 5683 5687 5689 5690 5692 5693 5694 5694 5694 5695 5695 5696
5780 5777 5769 5758 5746 5724 5717 5714 5724 5711 5707 5707 5706 5704 5700 5696 5692 5689 5686 5683 5680 5676 5671 5665 5660 5656 5653 5651 5650 5649 5649 5651 5653 5655 5658 5661 5664 5668 5672 5676 5679 5681 5684 5686 5687 5689 5690 5691 5691
5782 5775 5765 5739 5733 5736 5723 5703 5722 5713 5708 5701 5695 5692 5688 5683 5679 5675 5671 5668 5663 5659 5654 5648 5643 5639 5636 5634 5633 5632 5632 5632 5634 5637 5640 5643 5647 5651 5656 5662 5666 5671 5676 5679 5681 5682 5685 5686 5686